| time (UTC) | temp F | wind direction | speed MPH | gust MPH | rain 1hr in | rain 24hr in | rain mn in | humidity % | barometer mb |
| 20260507211529 | 57 | 117 | 1.0 | 4.0 | 0.00 | 0.05 | 0.05 | 72 | 1011.3 |
| 20260507210032 | 58 | 223 | 1.0 | 7.0 | 0.00 | 0.05 | 0.05 | 70 | 1011.2 |
| 20260507204529 | 58 | 0 | 1.0 | 5.0 | 0.00 | 0.05 | 0.05 | 71 | 1011.2 |
| 20260507203033 | 57 | 262 | 1.0 | 3.0 | 0.00 | 0.05 | 0.05 | 72 | 1011.4 |
| 20260507201530 | 58 | 214 | 1.0 | 6.0 | 0.00 | 0.05 | 0.05 | 72 | 1011.3 |
| 20260507200032 | 57 | 82 | 0.0 | 3.0 | 0.00 | 0.05 | 0.05 | 72 | 1011.6 |
| 20260507194530 | 57 | 0 | 0.0 | 4.0 | 0.00 | 0.05 | 0.05 | 71 | 1011.7 |
| 20260507193033 | 57 | 18 | 2.0 | 5.0 | 0.00 | 0.05 | 0.05 | 70 | 1011.9 |
| 20260507191533 | 57 | 25 | 2.0 | 6.0 | 0.00 | 0.05 | 0.05 | 74 | 1011.9 |
| 20260507190032 | 56 | 178 | 1.0 | 4.0 | 0.00 | 0.05 | 0.05 | 74 | 1012.1 |
| 20260507184530 | 56 | 0 | 0.0 | 3.0 | 0.00 | 0.05 | 0.05 | 74 | 1012.5 |
| 20260507183031 | 55 | 129 | 0.0 | 3.0 | 0.01 | 0.05 | 0.05 | 76 | 1012.4 |
| 20260507181531 | 55 | 0 | 0.0 | 2.0 | 0.01 | 0.05 | 0.05 | 79 | 1012.4 |
| 20260507180030 | 54 | 0 | 0.0 | 2.0 | 0.01 | 0.05 | 0.05 | 81 | 1012.6 |
| 20260507174540 | 54 | 0 | 1.0 | 2.0 | 0.01 | 0.05 | 0.05 | 84 | 1012.7 |
| 20260507173035 | 54 | 17 | 0.0 | 2.0 | 0.00 | 0.04 | 0.04 | 84 | 1012.9 |
| 20260507171536 | 53 | 328 | 0.0 | 2.0 | 0.00 | 0.04 | 0.04 | 85 | 1012.8 |
| 20260507170041 | 53 | 0 | 0.0 | 1.0 | 0.00 | 0.04 | 0.04 | 86 | 1013.1 |
| 20260507164533 | 53 | 254 | 0.0 | 2.0 | 0.01 | 0.04 | 0.04 | 88 | 1013.3 |
| 20260507163030 | 53 | 200 | 0.0 | 2.0 | 0.01 | 0.04 | 0.04 | 87 | 1013.5 |
| 20260507161532 | 53 | 5 | 0.0 | 1.0 | 0.01 | 0.04 | 0.04 | 90 | 1013.6 |
| 20260507160033 | 53 | 5 | 0.0 | 2.0 | 0.01 | 0.04 | 0.04 | 89 | 1013.8 |
| 20260507154531 | 53 | 0 | 0.0 | 1.0 | 0.00 | 0.03 | 0.03 | 89 | 1013.9 |
| 20260507153030 | 53 | 0 | 0.0 | 3.0 | 0.01 | 0.03 | 0.03 | 87 | 1014.2 |
| 20260507151530 | 53 | 0 | 0.0 | 2.0 | 0.01 | 0.03 | 0.03 | 90 | 1013.9 |
| 20260507150036 | 53 | 40 | 0.0 | 2.0 | 0.01 | 0.03 | 0.03 | 90 | 1013.7 |
| 20260507144530 | 53 | 40 | 0.0 | 2.0 | 0.01 | 0.04 | 0.03 | 88 | 1013.9 |
| 20260507143034 | 53 | 24 | 0.0 | 3.0 | 0.00 | 0.03 | 0.02 | 88 | 1014.1 |
| 20260507141533 | 54 | 38 | 0.0 | 2.0 | 0.00 | 0.03 | 0.02 | 86 | 1014.1 |
| 20260507140033 | 54 | 56 | 1.0 | 3.0 | 0.00 | 0.03 | 0.02 | 84 | 1014.3 |
| 20260507134534 | 55 | 35 | 1.0 | 3.0 | 0.00 | 0.06 | 0.02 | 84 | 1014.1 |
| 20260507133032 | 55 | 42 | 0.0 | 2.0 | 0.00 | 0.06 | 0.02 | 84 | 1014.3 |
| 20260507131545 | 55 | 50 | 0.0 | 2.0 | 0.00 | 0.06 | 0.02 | 83 | 1014.3 |
| 20260507130029 | 55 | 0 | 0.0 | 3.0 | 0.00 | 0.06 | 0.02 | 85 | 1014.0 |
| 20260507124534 | 55 | 0 | 0.0 | 2.0 | 0.00 | 0.07 | 0.02 | 86 | 1014.0 |
| 20260507123030 | 54 | 0 | 0.0 | 2.0 | 0.00 | 0.07 | 0.02 | 86 | 1013.8 |
| 20260507121531 | 54 | 0 | 0.0 | 2.0 | 0.00 | 0.07 | 0.02 | 87 | 1013.8 |
| 20260507120039 | 54 | 0 | 0.0 | 2.0 | 0.00 | 0.07 | 0.02 | 87 | 1013.7 |
| 20260507114529 | 54 | 0 | 0.0 | 2.0 | 0.00 | 0.07 | 0.02 | 88 | 1013.9 |
| 20260507113032 | 54 | 0 | 0.0 | 1.0 | 0.00 | 0.07 | 0.02 | 89 | 1013.4 |
| 20260507111531 | 54 | 0 | 0.0 | 1.0 | 0.00 | 0.07 | 0.02 | 89 | 1013.5 |
| 20260507110029 | 54 | 0 | 0.0 | 2.0 | 0.00 | 0.07 | 0.02 | 89 | 1013.1 |
| 20260507104532 | 54 | 0 | 0.0 | 2.0 | 0.00 | 0.07 | 0.02 | 89 | 1012.8 |
| 20260507103032 | 54 | 0 | 0.0 | 2.0 | 0.00 | 0.07 | 0.02 | 90 | 1013.2 |
| 20260507101532 | 54 | 0 | 0.0 | 3.0 | 0.00 | 0.07 | 0.02 | 91 | 1013.1 |
| 20260507100035 | 54 | 34 | 0.0 | 2.0 | 0.00 | 0.07 | 0.02 | 91 | 1013.0 |
| 20260507094530 | 54 | 0 | 0.0 | 2.0 | 0.00 | 0.07 | 0.02 | 92 | 1012.7 |
| 20260507093028 | 54 | 55 | 0.0 | 3.0 | 0.00 | 0.07 | 0.02 | 92 | 1012.7 |
| 20260507091532 | 55 | 0 | 0.0 | 2.0 | 0.00 | 0.07 | 0.02 | 93 | 1012.9 |
| 20260507090033 | 55 | 41 | 0.0 | 2.0 | 0.00 | 0.07 | 0.02 | 94 | 1012.7 |
| 20260507084529 | 55 | 41 | 0.0 | 3.0 | 0.00 | 0.07 | 0.02 | 94 | 1012.4 |
| 20260507083030 | 56 | 41 | 0.0 | 2.0 | 0.00 | 0.07 | 0.02 | 94 | 1012.5 |
| 20260507081541 | 56 | 41 | 0.0 | 3.0 | 0.00 | 0.07 | 0.02 | 95 | 1012.1 |
| 20260507080033 | 56 | 0 | 0.0 | 2.0 | 0.00 | 0.07 | 0.02 | 94 | 1012.1 |
| 20260507074549 | 57 | 0 | 1.0 | 2.0 | 0.00 | 0.07 | 0.02 | 94 | 1012.3 |
| 20260507073034 | 58 | 0 | 0.0 | 2.0 | 0.00 | 0.07 | 0.02 | 95 | 1011.9 |
| 20260507071533 | 58 | 0 | 1.0 | 2.0 | 0.00 | 0.07 | 0.02 | 94 | 1011.6 |
| 20260507070030 | 60 | 61 | 1.0 | 3.0 | 0.00 | 0.07 | 0.02 | 95 | 1011.3 |
| 20260507064532 | 61 | 71 | 0.0 | 4.0 | 0.00 | 0.07 | 0.02 | 94 | 1011.0 |
| 20260507063034 | 63 | 60 | 1.0 | 3.0 | 0.00 | 0.07 | 0.02 | 95 | 1011.5 |
| 20260507061534 | 63 | 0 | 0.0 | 0.0 | 0.00 | 0.07 | 0.02 | 96 | 1011.6 |
| 20260507060032 | 63 | 0 | 0.0 | 0.0 | 0.01 | 0.07 | 0.02 | 95 | 1011.3 |
| 20260507054531 | 64 | 0 | 0.0 | 0.0 | 0.01 | 0.07 | 0.02 | 95 | 1011.4 |
| 20260507053032 | 64 | 0 | 0.0 | 0.0 | 0.02 | 0.07 | 0.02 | 95 | 1011.0 |
| 20260507051531 | 64 | 0 | 0.0 | 0.0 | 0.02 | 0.07 | 0.02 | 95 | 1010.3 |
| 20260507050032 | 64 | 0 | 0.0 | 0.0 | 0.01 | 0.06 | 0.01 | 94 | 1010.4 |
| 20260507044535 | 64 | 0 | 0.0 | 0.0 | 0.01 | 0.06 | 0.01 | 93 | 1010.9 |
| 20260507043032 | 64 | 0 | 0.0 | 0.0 | 0.00 | 0.05 | 0.00 | 92 | 1011.4 |
| 20260507041529 | 65 | 0 | 0.0 | 0.0 | 0.00 | 0.05 | 0.00 | 91 | 1011.2 |
| 20260507040035 | 65 | 0 | 0.0 | 0.0 | 0.00 | 0.05 | 0.00 | 90 | 1010.8 |
| 20260507034533 | 66 | 0 | 0.0 | 0.0 | 0.00 | 0.05 | 0.05 | 88 | 1011.3 |
| 20260507033029 | 66 | 0 | 0.0 | 2.0 | 0.00 | 0.05 | 0.05 | 87 | 1011.3 |
| 20260507031530 | 66 | 0 | 0.0 | 5.0 | 0.00 | 0.05 | 0.05 | 86 | 1011.1 |
| 20260507030030 | 66 | 0 | 0.0 | 2.0 | 0.00 | 0.05 | 0.05 | 86 | 1010.9 |
| 20260507024533 | 66 | 0 | 0.0 | 3.0 | 0.00 | 0.05 | 0.05 | 86 | 1011.1 |
| 20260507023030 | 66 | 0 | 0.0 | 5.0 | 0.00 | 0.05 | 0.05 | 86 | 1011.5 |
| 20260507021535 | 66 | 0 | 0.0 | 2.0 | 0.00 | 0.05 | 0.05 | 85 | 1010.8 |
| 20260507020031 | 66 | 0 | 0.0 | 4.0 | 0.00 | 0.05 | 0.05 | 85 | 1010.3 |
| 20260507014544 | 66 | 0 | 0.0 | 5.0 | 0.00 | 0.05 | 0.05 | 85 | 1010.3 |
| 20260507013030 | 66 | 86 | 0.0 | 5.0 | 0.00 | 0.05 | 0.05 | 85 | 1010.8 |
| 20260507011532 | 67 | 123 | 0.0 | 2.0 | 0.00 | 0.05 | 0.05 | 84 | 1010.5 |
| 20260507010034 | 67 | 124 | 0.0 | 4.0 | 0.00 | 0.05 | 0.05 | 84 | 1011.1 |
| 20260507004532 | 67 | 0 | 0.0 | 5.0 | 0.00 | 0.05 | 0.05 | 83 | 1011.0 |
| 20260507003030 | 68 | 213 | 1.0 | 3.0 | 0.00 | 0.05 | 0.05 | 82 | 1010.8 |
| 20260507001532 | 68 | 202 | 1.0 | 5.0 | 0.00 | 0.05 | 0.05 | 81 | 1010.9 |
| 20260507000037 | 68 | 256 | 0.0 | 5.0 | 0.00 | 0.05 | 0.05 | 80 | 1010.8 |
| 20260506234530 | 69 | 206 | 1.0 | 5.0 | 0.00 | 0.05 | 0.05 | 79 | 1010.4 |
| 20260506233034 | 69 | 140 | 1.0 | 6.0 | 0.00 | 0.05 | 0.05 | 79 | 1010.6 |
| 20260506231531 | 70 | 120 | 1.0 | 11.0 | 0.00 | 0.05 | 0.05 | 79 | 1010.8 |
| 20260506230032 | 70 | 25 | 1.0 | 6.0 | 0.00 | 0.05 | 0.05 | 78 | 1010.3 |
| 20260506224531 | 70 | 186 | 1.0 | 8.0 | 0.00 | 0.05 | 0.05 | 77 | 1010.1 |
| 20260506223032 | 70 | 254 | 2.0 | 8.0 | 0.00 | 0.05 | 0.05 | 77 | 1010.4 |
| 20260506221530 | 70 | 244 | 2.0 | 10.0 | 0.00 | 0.05 | 0.05 | 77 | 1010.2 |
| 20260506220030 | 71 | 28 | 0.0 | 5.0 | 0.00 | 0.05 | 0.05 | 78 | 1010.2 |
| 20260506214531 | 71 | 0 | 1.0 | 6.0 | 0.00 | 0.05 | 0.05 | 76 | 1010.2 |
| 20260506213031 | 71 | 284 | 1.0 | 7.0 | 0.00 | 0.05 | 0.05 | 76 | 1009.9 |